Cairns, Australia

9:27 PM AEST on November 24, 2017 (GMT +1000)
Cairns International

Weather History for YBCS - March, 2012

Change the Weather History Date:

Sunday, March 25, 2012

  Actual Average Record
Temperature  
Mean Temperature 82 °F -  
Max Temperature 89 °F 84 °F 91 °F (2017)
Min Temperature 74 °F 71 °F 68 °F (1998)
Cooling Degree Days 16    
Growing Degree Days 32 (Base 50)    
Moisture  
Dew Point 74 °F    
Average Humidity 82    
Maximum Humidity 100    
Minimum Humidity 51    
Precipitation  
Precipitation 0.63 in 0.34 in - ()
Sea Level Pressure  
Sea Level Pressure 29.80 in    
Wind  
Wind Speed 7 mph ()    
Max Wind Speed 16 mph    
Max Gust Speed -    
Visibility 6.7 miles    
Events Rain    
Averages and records for this station are not official NWS values.
T = Trace of Precipitation, MM = Missing Value Source: Averaged Metar Reports

Daily Weather History Graph

Daily Weather History Graph

Search for Another Location

Airport or City:

Trip Planner

Search our weather history database for the weather conditions in past years. The results will help you decide how hot, cold, wet, or windy it might be!

Date:

Astronomy

Mar. 25, 2012 Rise Set
Actual Time 6:21 AM AEST 6:23 PM AEST
Civil Twilight 6:00 AM AEST 6:45 PM AEST
Nautical Twilight 5:35 AM AEST 7:10 PM AEST
Astronomical Twilight 5:09 AM AEST 7:35 PM AEST
Moon 8:11 AM AEST (3/25) 7:54 PM AEST (3/25)
Length of Visible Light 12h 45m
Length of Day
12h 02m
Waxing Crescent, 6% of the Moon is Illuminated
Mar 25
Waxing Crescent
Mar 31
First Quarter
Apr 7
Full
Apr 13
Last Quarter
Apr 21
New

Hourly Weather History & Observations

Time (AEST) Temp. Heat Index Dew Point Humidity Pressure Visibility Wind Dir Wind Speed Gust Speed Precip Events Conditions
12:00 AM 78 °F - 74 °F 85% 29.81 in - SE 5.8 mph - -  
12:00 AM 77.0 °F - 75.2 °F 94% 29.80 in 6.2 mi SE 5.8 mph - N/A   Partly Cloudy
12:30 AM 77.0 °F - 73.4 °F 89% 29.80 in 6.2 mi Calm Calm - N/A   Partly Cloudy
1:00 AM 76 °F - 74 °F 93% 29.79 in - SSE 4.6 mph - -  
1:00 AM 77.0 °F - 75.2 °F 94% 29.77 in 6.2 mi SSE 4.6 mph - N/A   Partly Cloudy
2:00 AM 75.2 °F - 75.2 °F 100% 29.77 in 6.2 mi Calm Calm - N/A   Partly Cloudy
2:30 AM 75.2 °F - 73.4 °F 94% 29.77 in 6.2 mi South 5.8 mph - N/A   Partly Cloudy
3:00 AM 77 °F - 73 °F 83% 29.76 in - SSE 6.9 mph - -  
3:00 AM 77.0 °F - 73.4 °F 89% 29.74 in 6.2 mi SSE 6.9 mph - N/A   Partly Cloudy
3:30 AM 77.0 °F - 73.4 °F 89% 29.74 in 6.2 mi SSE 8.1 mph - N/A   Partly Cloudy
4:00 AM 75 °F - 73 °F 93% 29.77 in - NNW 1.2 mph - -  
4:00 AM 75.2 °F - 73.4 °F 94% 29.77 in 6.2 mi NNW 1.2 mph - N/A   Partly Cloudy
4:30 AM 77.0 °F - 73.4 °F 89% 29.77 in 6.2 mi SSE 6.9 mph - N/A   Scattered Clouds
5:00 AM 77.0 °F - 71.6 °F 83% 29.77 in 6.2 mi SSW 3.5 mph - N/A   Scattered Clouds
5:30 AM 75.2 °F - 73.4 °F 94% 29.77 in 6.2 mi South 5.8 mph - N/A   Scattered Clouds
6:00 AM 75 °F - 73 °F 91% 29.79 in 19 mi SE 8.1 mph - -   Partly Cloudy
6:00 AM 75.2 °F - 73.4 °F 94% 29.77 in 6.2 mi SE 8.1 mph - N/A   Scattered Clouds
6:30 AM 75.2 °F - 73.4 °F 94% 29.80 in 6.2 mi Calm Calm - N/A   Scattered Clouds
7:00 AM 76 °F - 73 °F 86% 29.82 in - SW 4.6 mph - -  
7:00 AM 75.2 °F - 73.4 °F 94% 29.80 in 6.2 mi SW 4.6 mph - N/A   Scattered Clouds
7:30 AM 77.0 °F - 73.4 °F 89% 29.80 in 6.2 mi South 8.1 mph - N/A   Mostly Cloudy
8:00 AM 77.0 °F - 73.4 °F 89% 29.83 in 6.2 mi SE 10.4 mph - N/A   Mostly Cloudy
8:30 AM 78.8 °F - 73.4 °F 83% 29.83 in 6.2 mi SSE 12.7 mph - N/A   Mostly Cloudy
9:00 AM 81 °F - 74 °F 73% 29.85 in 19 mi SSE 8.1 mph - -   Partly Cloudy
9:00 AM 80.6 °F 85.4 °F 73.4 °F 79% 29.83 in 6.2 mi SSE 8.1 mph - N/A   Mostly Cloudy
9:30 AM 84.2 °F 90.9 °F 73.4 °F 70% 29.83 in 6.2 mi SSE 8.1 mph - N/A   Mostly Cloudy
10:00 AM 83 °F - 73 °F 64% 29.86 in - South 6.9 mph - -  
10:00 AM 84.2 °F 90.9 °F 73.4 °F 70% 29.83 in 6.2 mi South 6.9 mph - N/A   Mostly Cloudy
10:30 AM 86.0 °F 93.4 °F 73.4 °F 66% 29.83 in 6.2 mi South 6.9 mph - N/A   Mostly Cloudy
11:00 AM 86.0 °F 93.4 °F 73.4 °F 66% 29.83 in 6.2 mi South 6.9 mph - N/A   Mostly Cloudy
11:30 AM 87.8 °F 97.6 °F 75.2 °F 66% 29.83 in 6.2 mi SE 6.9 mph - N/A   Mostly Cloudy
12:00 PM 87 °F - 74 °F 56% 29.81 in 19 mi East 6.9 mph - -   Scattered Clouds
12:00 PM 87.8 °F 95.6 °F 73.4 °F 62% 29.80 in 6.2 mi East 6.9 mph - N/A   Mostly Cloudy
12:30 PM 86.0 °F 95.1 °F 75.2 °F 70% 29.80 in 6.2 mi NE 10.4 mph - N/A   Mostly Cloudy
1:00 PM 89 °F - 73 °F 51% 29.80 in - East 10.4 mph - -  
1:00 PM 89.6 °F 98.2 °F 73.4 °F 59% 29.77 in 6.2 mi East 10.4 mph - N/A   Mostly Cloudy
1:30 PM 87.8 °F 95.6 °F 73.4 °F 62% 29.77 in 6.2 mi ESE 10.4 mph - N/A   Mostly Cloudy
2:00 PM 87.8 °F 97.6 °F 75.2 °F 66% 29.77 in 6.2 mi ESE 11.5 mph - N/A   Mostly Cloudy
2:30 PM 86.0 °F 95.1 °F 75.2 °F 70% 29.74 in 6.2 mi SE 15.0 mph - N/A   Mostly Cloudy
3:00 PM 86 °F - 75 °F 63% 29.76 in 16 mi SE 16.1 mph - -   Partly Cloudy
3:00 PM 86.0 °F 95.1 °F 75.2 °F 70% 29.74 in 6.2 mi SE 16.1 mph - N/A   Mostly Cloudy
3:30 PM 86.0 °F 95.1 °F 75.2 °F 70% 29.74 in 6.2 mi ESE 11.5 mph - N/A   Mostly Cloudy
4:00 PM 85 °F - 76 °F 67% 29.77 in - SE 15.0 mph - -  
4:00 PM 84.2 °F 92.3 °F 75.2 °F 74% 29.77 in - SE 15.0 mph - N/A   Unknown
4:30 PM 84.2 °F 92.3 °F 75.2 °F 74% 29.77 in 6.2 mi SSE 11.5 mph - N/A   Mostly Cloudy
5:00 PM 84.2 °F 92.3 °F 75.2 °F 74% 29.77 in 6.2 mi SSE 13.8 mph - N/A   Mostly Cloudy
5:30 PM 82.4 °F 89.5 °F 75.2 °F 79% 29.77 in 6.2 mi South 6.9 mph - N/A   Mostly Cloudy
6:00 PM 81 °F - 75 °F 77% 29.79 in 16 mi South 8.1 mph - -   Partly Cloudy
6:00 PM 80.6 °F 86.2 °F 75.2 °F 84% 29.77 in 6.2 mi South 8.1 mph - N/A   Mostly Cloudy
6:30 PM 80.6 °F 86.2 °F 75.2 °F 84% 29.80 in 6.2 mi South 5.8 mph - N/A   Mostly Cloudy
6:52 PM 80.6 °F 86.2 °F 75.2 °F 84% 29.80 in 5.0 mi South 8.1 mph - N/A Rain Light Rain Showers
7:00 PM 80 °F - 75 °F 80% 29.82 in - South 9.2 mph - -  
7:00 PM 80.6 °F 86.2 °F 75.2 °F 84% 29.80 in 3.7 mi South 9.2 mph - N/A Rain Light Rain Showers
7:30 PM 77.0 °F - 75.2 °F 94% 29.80 in 6.2 mi South 10.4 mph - N/A   Mostly Cloudy
8:00 PM 78.8 °F - 75.2 °F 89% 29.83 in 6.2 mi SSE 12.7 mph - N/A   Mostly Cloudy
8:30 PM 78.8 °F - 75.2 °F 89% 29.83 in 6.2 mi South 10.4 mph - N/A   Mostly Cloudy
9:00 PM 78 °F - 75 °F 87% 29.85 in 4 mi South 9.2 mph - - Rain Light Rain Showers
9:00 PM 77.0 °F - 75.2 °F 94% 29.83 in 4.3 mi South 9.2 mph - N/A Rain Light Rain Showers
9:19 PM 77.0 °F - 75.2 °F 94% 29.83 in 3.1 mi South 10.4 mph - N/A Rain Light Rain Showers
9:30 PM 77.0 °F - 75.2 °F 94% 29.86 in 3.1 mi South 11.5 mph - N/A Rain Rain Showers
10:00 PM 77 °F - 75 °F 92% 29.86 in - SSE 10.4 mph - -  
10:00 PM 77.0 °F - 75.2 °F 94% 29.83 in 3.1 mi SSE 10.4 mph - N/A Rain Rain
10:30 PM 77.0 °F - 75.2 °F 94% 29.83 in 3.7 mi South 8.1 mph - N/A Rain Light Rain
10:42 PM 77.0 °F - 75.2 °F 94% 29.83 in 2.5 mi South 6.9 mph - N/A Rain Light Rain
11:00 PM 77.0 °F - 75.2 °F 94% 29.83 in 2.5 mi South 9.2 mph - N/A Rain Light Rain
11:30 PM 77.0 °F - 75.2 °F 94% 29.83 in 5.0 mi South 11.5 mph - N/A Rain Light Rain